Back to catalog

COSMOS 2592

AliveMilitarySSO
NORAD 65268·PAYLOAD·🇷🇺 Russia

Launched Aug 21, 2025 from Plesetsk Cosmodrome

Loading…

Next Passes (next 24 hours)

TLE

FreshSource: Space-Track

Epoch: Sep 14, 2026, 13:47 UTC

1 65268U 25182B   26257.57476537  .00070147  37189-5  16989-3 0  9999
2 65268  96.5777 186.7723 0006967 120.7389 239.4577 15.96404354 61951

Track COSMOS 2592 in real time with AllMySat

Download on the App Store